When you browse on this site, cookies collect data to enhance your experience and personalize the content and advertising you see.
Visit our Privacy Policy to learn more. By continuing to use the site, you agree to this use of cookies and data.
  • In Hungary
  • List of Countries
  • For 7 days
  • Water Temperature
  • Satellite Maps
  • Weather Map
  • News
  • Weather Widgets
  • user-avatar
    Login

    Hourly Weather Sergievka 2-ya

    Today, 23 January, Wednesday

    Time Temperature Precipitation Wind Pressure Humidity
    00:00 -19°C° 0 mm 3 mps 745 mmHg 97%
    01:00 -21°C° 0 mm 3 mps 745 mmHg 97%
    02:00 -20°C° 0 mm 2 mps 745 mmHg 98%
    03:00 -20°C° 0 mm 2 mps 745 mmHg 98%
    04:00 -21°C° 0 mm 2 mps 745 mmHg 98%
    05:00 -23°C° 0 mm 2 mps 746 mmHg 98%
    06:00 -21°C° 0 mm 1 mps 746 mmHg 97%
    07:00 -21°C° 0 mm 1 mps 746 mmHg 97%
    08:00 -21°C° 0 mm 1 mps 747 mmHg 96%
    09:00 -21°C° 0 mm 1 mps 747 mmHg 95%
    10:00 -19°C° 0 mm 0 mps 747 mmHg 92%
    11:00 -18°C° 0 mm 0 mps 748 mmHg 89%
    12:00 -16°C° 0 mm 0 mps 748 mmHg 86%
    13:00 -16°C° 0 mm 0 mps 748 mmHg 87%
    14:00 -16°C° 0 mm 0 mps 748 mmHg 87%
    15:00 -16°C° 0 mm 0 mps 748 mmHg 88%
    16:00 -17°C° 0 mm 1 mps 748 mmHg 88%
    17:00 -18°C° 0 mm 1 mps 748 mmHg 89%
    18:00 -21°C° 0 mm 2 mps 748 mmHg 89%
    19:00 -20°C° 0 mm 2 mps 748 mmHg 91%
    20:00 -20°C° 0 mm 2 mps 749 mmHg 92%
    21:00 -22°C° 0 mm 3 mps 749 mmHg 93%
    22:00 -22°C° 0 mm 3 mps 749 mmHg 93%
    23:00 -22°C° 0 mm 3 mps 749 mmHg 93%

    Tomorrow, 24 January, Thursday

    Time Temperature Precipitation Wind Pressure Humidity
    00:00 -22°C° 0 mm 4 mps 749 mmHg 93%
    01:00 -22°C° 0 mm 4 mps 748 mmHg 93%
    02:00 -20°C° 0 mm 4 mps 748 mmHg 92%
    03:00 -20°C° 0 mm 5 mps 748 mmHg 92%
    04:00 -20°C° 0.2 mm 5 mps 747 mmHg 93%
    05:00 -21°C° 0.2 mm 6 mps 747 mmHg 93%
    06:00 -20°C° 0.2 mm 6 mps 746 mmHg 94%
    07:00 -20°C° 0.8 mm 7 mps 746 mmHg 94%
    08:00 -19°C° 0.8 mm 7 mps 746 mmHg 95%
    09:00 -19°C° 0.8 mm 7 mps 746 mmHg 95%
    10:00 -18°C° 0.7 mm 8 mps 745 mmHg 94%
    11:00 -18°C° 0.7 mm 8 mps 745 mmHg 93%
    12:00 -17°C° 0.7 mm 8 mps 744 mmHg 92%
    13:00 -16°C° 0.6 mm 8 mps 744 mmHg 93%
    14:00 -15°C° 0.6 mm 7 mps 743 mmHg 93%
    15:00 -15°C° 0.6 mm 7 mps 743 mmHg 94%
    16:00 -14°C° 0.7 mm 6 mps 742 mmHg 94%
    17:00 -14°C° 0.7 mm 6 mps 742 mmHg 95%
    18:00 -13°C° 0.7 mm 5 mps 742 mmHg 95%
    19:00 -12°C° 0.9 mm 5 mps 742 mmHg 95%
    20:00 -11°C° 0.9 mm 5 mps 742 mmHg 95%
    21:00 -10°C° 0.9 mm 4 mps 741 mmHg 95%
    22:00 -9°C° 0.3 mm 4 mps 741 mmHg 95%
    23:00 -9°C° 0.3 mm 4 mps 741 mmHg 95%

    Day after tomorrow, 25 January, Friday

    Time Temperature Precipitation Wind Pressure Humidity
    00:00 -7°C° 0.3 mm 3 mps 741 mmHg 95%
    01:00 -7°C° 0.6 mm 3 mps 741 mmHg 96%
    02:00 -7°C° 0.6 mm 3 mps 741 mmHg 96%
    03:00 -6°C° 0.6 mm 2 mps 741 mmHg 97%
    04:00 -5°C° 0.3 mm 2 mps 741 mmHg 97%
    05:00 -5°C° 0.3 mm 2 mps 741 mmHg 97%
    06:00 -3°C° 0.3 mm 1 mps 741 mmHg 97%
    07:00 -3°C° 0.3 mm 1 mps 741 mmHg 97%
    08:00 -3°C° 0.3 mm 1 mps 741 mmHg 97%
    09:00 -3°C° 0.3 mm 1 mps 742 mmHg 97%
    10:00 -5°C° 0.2 mm 2 mps 742 mmHg 97%
    11:00 -5°C° 0.2 mm 2 mps 742 mmHg 96%
    12:00 -5°C° 0.2 mm 2 mps 742 mmHg 96%
    13:00 -6°C° 0.1 mm 3 mps 742 mmHg 96%
    14:00 -6°C° 0.1 mm 3 mps 743 mmHg 96%
    15:00 -8°C° 0.1 mm 4 mps 743 mmHg 95%
    16:00 -8°C° 0.1 mm 4 mps 743 mmHg 95%
    17:00 -9°C° 0.1 mm 4 mps 743 mmHg 95%
    18:00 -9°C° 0.1 mm 4 mps 744 mmHg 95%
    19:00 -10°C° 0.1 mm 5 mps 744 mmHg 95%
    20:00 -11°C° 0.1 mm 5 mps 744 mmHg 95%
    21:00 -11°C° 0.1 mm 5 mps 745 mmHg 95%
    22:00 -11°C° 0.1 mm 5 mps 745 mmHg 95%
    23:00 -12°C° 0.1 mm 5 mps 745 mmHg 95%

    26 January, Saturday

    Time Temperature Precipitation Wind Pressure Humidity
    00:00 -12°C° 0.1 mm 5 mps 745 mmHg 95%
    01:00 -13°C° 0.1 mm 5 mps 745 mmHg 95%
    02:00 -13°C° 0.1 mm 5 mps 745 mmHg 95%
    03:00 -14°C° 0.1 mm 5 mps 745 mmHg 95%
    04:00 -15°C° 0.1 mm 6 mps 744 mmHg 95%
    05:00 -16°C° 0.1 mm 6 mps 744 mmHg 95%
    06:00 -16°C° 0.1 mm 6 mps 744 mmHg 95%
    07:00 -16°C° 0 mm 6 mps 744 mmHg 95%
    08:00 -16°C° 0 mm 6 mps 744 mmHg 95%
    09:00 -17°C° 0 mm 6 mps 745 mmHg 95%
    10:00 -17°C° 0.1 mm 6 mps 745 mmHg 95%
    11:00 -17°C° 0.1 mm 6 mps 744 mmHg 95%
    12:00 -17°C° 0.1 mm 6 mps 744 mmHg 95%
    13:00 -16°C° 0 mm 6 mps 744 mmHg 95%
    14:00 -16°C° 0 mm 6 mps 744 mmHg 95%
    15:00 -16°C° 0 mm 6 mps 743 mmHg 95%
    16:00 -17°C° 0.1 mm 6 mps 743 mmHg 95%
    17:00 -18°C° 0.1 mm 7 mps 743 mmHg 95%
    18:00 -18°C° 0.1 mm 7 mps 743 mmHg 95%
    19:00 -18°C° 0 mm 7 mps 742 mmHg 94%
    20:00 -18°C° 0 mm 7 mps 742 mmHg 94%
    21:00 -18°C° 0 mm 7 mps 742 mmHg 94%
    22:00 -19°C° 0 mm 7 mps 742 mmHg 94%
    23:00 -19°C° 0 mm 7 mps 742 mmHg 94%

    27 January, Sunday

    Time Temperature Precipitation Wind Pressure Humidity
    00:00 -19°C° 0 mm 7 mps 741 mmHg 94%
    01:00 -19°C° 0.1 mm 7 mps 741 mmHg 94%
    02:00 -19°C° 0.1 mm 7 mps 741 mmHg 94%
    03:00 -18°C° 0.1 mm 6 mps 741 mmHg 94%
    04:00 -18°C° 0 mm 6 mps 740 mmHg 94%
    05:00 -18°C° 0 mm 6 mps 740 mmHg 94%
    06:00 -18°C° 0 mm 6 mps 740 mmHg 94%
    07:00 -18°C° 0 mm 6 mps 740 mmHg 94%
    08:00 -17°C° 0 mm 6 mps 740 mmHg 94%
    09:00 -17°C° 0 mm 6 mps 740 mmHg 94%
    10:00 -17°C° 0 mm 6 mps 740 mmHg 95%
    11:00 -17°C° 0 mm 6 mps 740 mmHg 95%
    12:00 -15°C° 0 mm 5 mps 739 mmHg 95%
    13:00 -15°C° 0 mm 5 mps 739 mmHg 95%
    14:00 -15°C° 0 mm 5 mps 739 mmHg 95%
    15:00 -15°C° 0 mm 5 mps 739 mmHg 95%
    16:00 -15°C° 0 mm 5 mps 739 mmHg 95%
    17:00 -17°C° 0 mm 5 mps 739 mmHg 95%
    18:00 -17°C° 0 mm 5 mps 739 mmHg 95%
    19:00 -17°C° 0 mm 5 mps 739 mmHg 95%
    20:00 -16°C° 0 mm 4 mps 739 mmHg 95%
    21:00 -15°C° 0 mm 4 mps 739 mmHg 95%
    22:00 -16°C° 0 mm 4 mps 739 mmHg 96%
    23:00 -15°C° 0 mm 3 mps 739 mmHg 96%

    28 January, Monday

    Time Temperature Precipitation Wind Pressure Humidity
    00:00 -15°C° 0 mm 3 mps 739 mmHg 96%
    01:00 -14°C° 0 mm 3 mps 739 mmHg 96%
    02:00 -14°C° 0 mm 3 mps 739 mmHg 96%
    03:00 -14°C° 0 mm 3 mps 739 mmHg 96%
    04:00 -14°C° 0.1 mm 3 mps 739 mmHg 96%
    05:00 -14°C° 0.1 mm 3 mps 739 mmHg 96%
    06:00 -13°C° 0.1 mm 3 mps 739 mmHg 96%
    07:00 -13°C° 0 mm 3 mps 739 mmHg 96%
    08:00 -13°C° 0 mm 3 mps 739 mmHg 96%
    09:00 -12°C° 0 mm 3 mps 739 mmHg 96%
    10:00 -12°C° 0.3 mm 3 mps 739 mmHg 96%
    11:00 -10°C° 0.3 mm 3 mps 739 mmHg 95%
    12:00 -8°C° 0.3 mm 2 mps 739 mmHg 95%
    13:00 -8°C° 0.1 mm 2 mps 739 mmHg 95%
    14:00 -8°C° 0.1 mm 2 mps 739 mmHg 95%
    15:00 -7°C° 0.1 mm 2 mps 739 mmHg 95%
    16:00 -8°C° 0.1 mm 2 mps 739 mmHg 95%
    17:00 -8°C° 0.1 mm 2 mps 739 mmHg 96%
    18:00 -8°C° 0.1 mm 2 mps 739 mmHg 96%
    19:00 -8°C° 0.1 mm 2 mps 739 mmHg 96%
    20:00 -7°C° 0.1 mm 1 mps 739 mmHg 96%
    21:00 -7°C° 0.1 mm 1 mps 739 mmHg 96%
    22:00 -8°C° 0.1 mm 2 mps 739 mmHg 96%
    23:00 -7°C° 0.1 mm 2 mps 739 mmHg 96%
    Show more